Tracking 17264 objects as of 2-September-2015
HD Live streaming from Space Station
Soyuz TMA-18M launch Live coverage:
Soyuz TMA-18M launch from Baikonur

SL-16 DEB

Track SL-16 DEB now!
10-day predictions
SL-16 DEB is classified as:


NORAD ID: 22336
Int'l Code: 1992-093Z
Perigee: 841.8 km
Apogee: 1,013.8 km
Inclination: 71.1 °
Period: 103.4 minutes
Semi major axis: 7298 km
RCS: 0.2247 m2 (medium)
Launch date: December 25, 1992
Source: Commonwealth of Independent States (former USSR) (CIS)

Note: This is SATELLITE DEBRIS
Your satellite tracking list
Your tracking list is empty





NASA's NSSDC Master Catalog

Two Line Element Set (TLE):
1 22336U 92093Z   15243.49238529 +.00000182 +00000-0 +16593-3 0  9994
2 22336 071.1305 235.6949 0117812 123.1866 005.3536 13.92278738148353

Source of the keplerian elements: AFSPC

N2YO: 285